| time (UTC) | temp F | wind direction | speed MPH | gust MPH | rain 1hr in | rain 24hr in | rain mn in | humidity % | barometer mb |
| 20260508065236 | 60 | 50 | 0.0 | 3.0 | 0.00 | 0.00 | 0.00 | 81 | |
| 20260508064734 | 60 | 9 | 1.0 | 2.0 | 0.00 | 0.00 | 0.00 | 80 | |
| 20260508064232 | 60 | 41 | 2.0 | 2.0 | 0.00 | 0.00 | 0.00 | 80 | |
| 20260508063729 | 60 | 54 | 2.0 | 2.0 | 0.00 | 0.00 | 0.00 | 81 | |
| 20260508063227 | 60 | 20 | 0.0 | 0.0 | 0.00 | 0.00 | 0.00 | 82 | |
| 20260508062724 | 60 | 20 | 0.0 | 0.0 | 0.00 | 0.00 | 0.00 | 82 | |
| 20260508062222 | 60 | 18 | 0.0 | 0.0 | 0.00 | 0.00 | 0.00 | 82 | |
| 20260508061718 | 60 | 19 | 1.0 | 2.0 | 0.00 | 0.00 | 0.00 | 81 | |
| 20260508061216 | 60 | 55 | 0.0 | 0.0 | 0.00 | 0.00 | 0.00 | 80 | |
| 20260508060712 | 60 | 41 | 0.0 | 0.0 | 0.00 | 0.00 | 0.00 | 80 | |
| 20260508060210 | 60 | 44 | 0.0 | 1.0 | 0.00 | 0.00 | 0.00 | 79 | |
| 20260508055705 | 60 | 30 | 1.0 | 2.0 | 0.00 | 0.00 | 0.00 | 79 | |
| 20260508055202 | 61 | 40 | 1.0 | 2.0 | 0.00 | 0.00 | 0.00 | 78 | |
| 20260508054659 | 61 | 67 | 0.0 | 2.0 | 0.00 | 0.00 | 0.00 | 77 | |
| 20260508054156 | 61 | 65 | 0.0 | 0.0 | 0.00 | 0.00 | 0.00 | 78 | |
| 20260508053653 | 61 | 62 | 0.0 | 2.0 | 0.00 | 0.00 | 0.00 | 78 | |
| 20260508053151 | 60 | 71 | 0.0 | 0.0 | 0.00 | 0.00 | 0.00 | 79 | |
| 20260508052648 | 60 | 14 | 1.0 | 1.0 | 0.00 | 0.00 | 0.00 | 79 | |
| 20260508052145 | 60 | 5 | 1.0 | 2.0 | 0.00 | 0.00 | 0.00 | 80 | |
| 20260508051641 | 60 | 11 | 2.0 | 2.0 | 0.00 | 0.00 | 0.00 | 79 | |
| 20260508051137 | 60 | 353 | 1.0 | 2.0 | 0.00 | 0.00 | 0.00 | 80 | |
| 20260508050633 | 60 | 348 | 2.0 | 2.0 | 0.00 | 0.00 | 0.00 | 79 | |
| 20260508050131 | 60 | 77 | 1.0 | 3.0 | 0.00 | 0.00 | 0.00 | 79 | |
| 20260508045626 | 60 | 347 | 3.0 | 5.0 | 0.00 | 0.00 | 0.00 | 79 | |
| 20260508045124 | 60 | 25 | 1.0 | 3.0 | 0.00 | 0.00 | 0.00 | 78 | |
| 20260508044621 | 60 | 62 | 0.0 | 2.0 | 0.00 | 0.00 | 0.00 | 78 | |
| 20260508044117 | 60 | 40 | 2.0 | 5.0 | 0.00 | 0.00 | 0.00 | 79 | |
| 20260508043614 | 60 | 26 | 2.0 | 3.0 | 0.00 | 0.00 | 0.00 | 80 | |
| 20260508043112 | 60 | 330 | 6.0 | 8.0 | 0.00 | 0.00 | 0.00 | 82 | |
| 20260508042608 | 60 | 304 | 4.0 | 5.0 | 0.00 | 0.00 | 0.00 | 80 | |
| 20260508042106 | 60 | 57 | 1.0 | 2.0 | 0.00 | 0.00 | 0.00 | 79 | |
| 20260508041601 | 60 | 84 | 6.0 | 7.0 | 0.00 | 0.00 | 0.00 | 79 | |
| 20260508041058 | 60 | 61 | 1.0 | 3.0 | 0.00 | 0.00 | 0.00 | 79 | |
| 20260508040555 | 60 | 55 | 2.0 | 2.0 | 0.00 | 0.00 | 0.00 | 79 | |
| 20260508040053 | 60 | 82 | 1.0 | 1.0 | 0.00 | 0.00 | 0.00 | 80 | |
| 20260508035549 | 60 | 68 | 0.0 | 0.0 | 0.00 | 0.00 | 0.00 | 80 | |
| 20260508035047 | 60 | 12 | 0.0 | 1.0 | 0.00 | 0.00 | 0.00 | 80 | |
| 20260508034543 | 60 | 10 | 1.0 | 2.0 | 0.00 | 0.00 | 0.00 | 79 | |
| 20260508034041 | 61 | 25 | 2.0 | 2.0 | 0.00 | 0.00 | 0.00 | 77 | |
| 20260508033538 | 61 | 322 | 1.0 | 2.0 | 0.00 | 0.00 | 0.00 | 77 | |
| 20260508033036 | 61 | 281 | 0.0 | 0.0 | 0.00 | 0.00 | 0.00 | 77 | |
| 20260508032532 | 61 | 281 | 0.0 | 0.0 | 0.00 | 0.00 | 0.00 | 77 | |
| 20260508032030 | 61 | 281 | 0.0 | 0.0 | 0.00 | 0.00 | 0.00 | 78 | |
| 20260508031527 | 61 | 268 | 0.0 | 0.0 | 0.00 | 0.00 | 0.00 | 78 | |
| 20260508031022 | 61 | 268 | 0.0 | 0.0 | 0.00 | 0.00 | 0.00 | 79 | |
| 20260508030520 | 60 | 268 | 1.0 | 1.0 | 0.00 | 0.00 | 0.00 | 79 | |
| 20260508030018 | 60 | 254 | 2.0 | 2.0 | 0.00 | 0.00 | 0.00 | 79 | |
| 20260508025513 | 60 | 256 | 3.0 | 3.0 | 0.00 | 0.00 | 0.00 | 79 | |
| 20260508025011 | 60 | 274 | 2.0 | 3.0 | 0.00 | 0.00 | 0.00 | 78 | |
| 20260508024507 | 61 | 329 | 0.0 | 0.0 | 0.00 | 0.00 | 0.00 | 76 | |
| 20260508024004 | 61 | 16 | 0.0 | 0.0 | 0.00 | 0.00 | 0.00 | 75 | |
| 20260508023500 | 61 | 17 | 0.0 | 0.0 | 0.00 | 0.00 | 0.00 | 74 | |
| 20260508022958 | 61 | 16 | 0.0 | 2.0 | 0.00 | 0.00 | 0.00 | 74 | |
| 20260508022453 | 62 | 17 | 0.0 | 0.0 | 0.00 | 0.00 | 0.00 | 74 | |
| 20260508021950 | 62 | 16 | 0.0 | 0.0 | 0.00 | 0.00 | 0.00 | 73 | |
| 20260508021446 | 62 | 16 | 1.0 | 2.0 | 0.00 | 0.00 | 0.00 | 72 | |
| 20260508020942 | 62 | 50 | 0.0 | 1.0 | 0.00 | 0.00 | 0.00 | 72 | |
| 20260508020440 | 62 | 75 | 4.0 | 5.0 | 0.00 | 0.00 | 0.00 | 72 | |
| 20260508015937 | 62 | 59 | 3.0 | 3.0 | 0.00 | 0.00 | 0.00 | 72 | |
| 20260508015435 | 62 | 48 | 1.0 | 2.0 | 0.00 | 0.00 | 0.00 | 73 | |
| 20260508014931 | 62 | 10 | 2.0 | 2.0 | 0.00 | 0.00 | 0.00 | 72 | |
| 20260508014428 | 63 | 27 | 0.0 | 1.0 | 0.00 | 0.00 | 0.00 | 70 | |
| 20260508013924 | 63 | 59 | 3.0 | 5.0 | 0.00 | 0.00 | 0.00 | 70 | |
| 20260508013420 | 63 | 59 | 2.0 | 5.0 | 0.00 | 0.00 | 0.00 | 69 | |
| 20260508012918 | 63 | 61 | 2.0 | 6.0 | 0.00 | 0.00 | 0.00 | 69 | |
| 20260508012414 | 63 | 72 | 4.0 | 8.0 | 0.00 | 0.00 | 0.00 | 68 | |
| 20260508011912 | 64 | 67 | 3.0 | 7.0 | 0.00 | 0.00 | 0.00 | 67 | |
| 20260508011410 | 64 | 67 | 4.0 | 6.0 | 0.00 | 0.00 | 0.00 | 67 | |
| 20260508010907 | 64 | 63 | 7.0 | 8.0 | 0.00 | 0.00 | 0.00 | 66 | |
| 20260508010404 | 64 | 86 | 4.0 | 7.0 | 0.00 | 0.00 | 0.00 | 66 | |
| 20260508005901 | 64 | 35 | 1.0 | 3.0 | 0.00 | 0.00 | 0.00 | 67 | |
| 20260508005358 | 64 | 58 | 4.0 | 6.0 | 0.00 | 0.00 | 0.00 | 66 | |
| 20260508004854 | 64 | 21 | 3.0 | 7.0 | 0.00 | 0.00 | 0.00 | 68 | |
| 20260508004350 | 64 | 61 | 7.0 | 9.0 | 0.00 | 0.00 | 0.00 | 68 | |
| 20260508003847 | 64 | 62 | 4.0 | 6.0 | 0.00 | 0.00 | 0.00 | 69 | |
| 20260508003344 | 65 | 342 | 3.0 | 7.0 | 0.00 | 0.00 | 0.00 | 68 | |
| 20260508002841 | 65 | 84 | 6.0 | 8.0 | 0.00 | 0.00 | 0.00 | 67 | |
| 20260508002338 | 65 | 66 | 2.0 | 5.0 | 0.00 | 0.00 | 0.00 | 66 | |
| 20260508001834 | 65 | 91 | 6.0 | 8.0 | 0.00 | 0.00 | 0.00 | 66 | |
| 20260508001330 | 65 | 55 | 2.0 | 6.0 | 0.00 | 0.00 | 0.00 | 66 | |
| 20260508000827 | 66 | 348 | 3.0 | 6.0 | 0.00 | 0.00 | 0.00 | 66 | |
| 20260508000323 | 66 | 56 | 3.0 | 6.0 | 0.00 | 0.00 | 0.00 | 65 | |
| 20260507235820 | 66 | 96 | 3.0 | 7.0 | 0.00 | 0.00 | 0.00 | 65 | |
| 20260507235317 | 66 | 86 | 5.0 | 8.0 | 0.00 | 0.00 | 0.00 | 64 | |
| 20260507234814 | 67 | 43 | 2.0 | 5.0 | 0.00 | 0.00 | 0.00 | 63 | |
| 20260507234311 | 67 | 46 | 3.0 | 5.0 | 0.00 | 0.00 | 0.00 | 63 | |
| 20260507233807 | 67 | 45 | 3.0 | 5.0 | 0.00 | 0.00 | 0.00 | 61 | |
| 20260507233305 | 67 | 351 | 3.0 | 7.0 | 0.00 | 0.00 | 0.00 | 61 | |
| 20260507232803 | 67 | 75 | 6.0 | 9.0 | 0.00 | 0.00 | 0.00 | 60 | |
| 20260507232259 | 68 | 60 | 5.0 | 6.0 | 0.00 | 0.00 | 0.00 | 60 | |
| 20260507231755 | 67 | 55 | 6.0 | 7.0 | 0.00 | 0.00 | 0.00 | 61 | |
| 20260507231252 | 68 | 29 | 4.0 | 7.0 | 0.00 | 0.00 | 0.00 | 61 | |
| 20260507230749 | 67 | 333 | 5.0 | 7.0 | 0.00 | 0.00 | 0.00 | 64 | |
| 20260507230247 | 67 | 22 | 3.0 | 5.0 | 0.00 | 0.00 | 0.00 | 64 | |
| 20260507225746 | 67 | 349 | 4.0 | 7.0 | 0.00 | 0.00 | 0.00 | 64 | |
| 20260507225243 | 67 | 80 | 5.0 | 8.0 | 0.00 | 0.00 | 0.00 | 62 | |
| 20260507224738 | 67 | 51 | 2.0 | 3.0 | 0.00 | 0.00 | 0.00 | 63 | |
| 20260507224235 | 67 | 31 | 7.0 | 8.0 | 0.00 | 0.00 | 0.00 | 64 | |
| 20260507223732 | 67 | 0 | 5.0 | 10.0 | 0.00 | 0.00 | 0.00 | 63 | |
| 20260507223228 | 67 | 340 | 7.0 | 10.0 | 0.00 | 0.00 | 0.00 | 63 | |
| 20260507222725 | 67 | 13 | 3.0 | 7.0 | 0.00 | 0.00 | 0.00 | 62 | |
| 20260507222222 | 67 | 6 | 4.0 | 6.0 | 0.00 | 0.00 | 0.00 | 62 | |
| 20260507221718 | 67 | 347 | 4.0 | 6.0 | 0.00 | 0.00 | 0.00 | 62 | |
| 20260507221215 | 66 | 45 | 3.0 | 5.0 | 0.00 | 0.00 | 0.00 | 61 | |
| 20260507220711 | 66 | 333 | 6.0 | 7.0 | 0.00 | 0.00 | 0.00 | 61 | |
| 20260507220210 | 66 | 5 | 6.0 | 10.0 | 0.00 | 0.00 | 0.00 | 61 | |
| 20260507215705 | 66 | 17 | 5.0 | 6.0 | 0.00 | 0.00 | 0.00 | 62 | |
| 20260507215203 | 66 | 346 | 6.0 | 10.0 | 0.00 | 0.00 | 0.00 | 62 | |
| 20260507214700 | 66 | 2 | 3.0 | 7.0 | 0.00 | 0.00 | 0.00 | 63 | |
| 20260507214156 | 66 | 18 | 5.0 | 6.0 | 0.00 | 0.00 | 0.00 | 62 | |
| 20260507213652 | 66 | 338 | 6.0 | 10.0 | 0.00 | 0.00 | 0.00 | 63 | |
| 20260507213150 | 66 | 349 | 9.0 | 13.0 | 0.00 | 0.00 | 0.00 | 61 | |
| 20260507212646 | 66 | 18 | 5.0 | 7.0 | 0.00 | 0.00 | 0.00 | 61 | |
| 20260507212143 | 66 | 37 | 7.0 | 11.0 | 0.00 | 0.00 | 0.00 | 60 | |
| 20260507211640 | 66 | 338 | 5.0 | 11.0 | 0.00 | 0.00 | 0.00 | 61 | |
| 20260507211135 | 66 | 50 | 8.0 | 14.0 | 0.00 | 0.00 | 0.00 | 61 | |
| 20260507210633 | 66 | 21 | 7.0 | 11.0 | 0.00 | 0.00 | 0.00 | 62 | |
| 20260507210129 | 66 | 8 | 9.0 | 15.0 | 0.00 | 0.00 | 0.00 | 62 | |
| 20260507205626 | 66 | 352 | 9.0 | 16.0 | 0.00 | 0.00 | 0.00 | 62 | |
| 20260507205123 | 65 | 354 | 5.0 | 10.0 | 0.00 | 0.00 | 0.00 | 66 | |
| 20260507204619 | 65 | 358 | 7.0 | 13.0 | 0.00 | 0.00 | 0.00 | 65 | |
| 20260507204117 | 65 | 58 | 10.0 | 17.0 | 0.00 | 0.00 | 0.00 | 65 | |
| 20260507203614 | 64 | 354 | 6.0 | 13.0 | 0.00 | 0.00 | 0.00 | 66 | |
| 20260507203112 | 65 | 5 | 8.0 | 13.0 | 0.00 | 0.00 | 0.00 | 65 | |
| 20260507202607 | 65 | 326 | 8.0 | 14.0 | 0.00 | 0.00 | 0.00 | 65 | |
| 20260507202104 | 66 | 14 | 11.0 | 14.0 | 0.00 | 0.00 | 0.00 | 63 | |
| 20260507201559 | 67 | 7 | 10.0 | 14.0 | 0.00 | 0.00 | 0.00 | 64 | |
| 20260507201056 | 67 | 54 | 10.0 | 14.0 | 0.00 | 0.00 | 0.00 | 63 | |
| 20260507200551 | 66 | 305 | 9.0 | 13.0 | 0.00 | 0.00 | 0.00 | 65 | |
| 20260507200047 | 66 | 54 | 6.0 | 9.0 | 0.00 | 0.00 | 0.00 | 65 | |
| 20260507195545 | 66 | 25 | 3.0 | 13.0 | 0.00 | 0.00 | 0.00 | 65 | |
| 20260507195042 | 66 | 25 | 9.0 | 13.0 | 0.00 | 0.00 | 0.00 | 64 | |
| 20260507194538 | 66 | 35 | 9.0 | 15.0 | 0.00 | 0.00 | 0.00 | 64 | |
| 20260507194035 | 67 | 35 | 8.0 | 14.0 | 0.00 | 0.00 | 0.00 | 65 | |
| 20260507193532 | 66 | 353 | 9.0 | 11.0 | 0.00 | 0.00 | 0.00 | 65 | |
| 20260507193029 | 66 | 43 | 8.0 | 17.0 | 0.00 | 0.00 | 0.00 | 67 | |
| 20260507192525 | 65 | 47 | 6.0 | 11.0 | 0.00 | 0.00 | 0.00 | 68 | |
| 20260507192022 | 66 | 56 | 12.0 | 14.0 | 0.00 | 0.00 | 0.00 | 66 | |
| 20260507191517 | 65 | 32 | 5.0 | 11.0 | 0.00 | 0.00 | 0.00 | 70 | |
| 20260507191014 | 64 | 74 | 7.0 | 11.0 | 0.00 | 0.00 | 0.00 | 70 | |
| 20260507190512 | 64 | 44 | 7.0 | 9.0 | 0.00 | 0.00 | 0.00 | 71 | |
| 20260507190011 | 63 | 69 | 9.0 | 11.0 | 0.00 | 0.00 | 0.00 | 71 | |
| 20260507185508 | 63 | 59 | 9.0 | 13.0 | 0.00 | 0.00 | 0.00 | 72 | |
| 20260507185004 | 63 | 67 | 5.0 | 7.0 | 0.00 | 0.00 | 0.00 | 73 | |
| 20260507184503 | 63 | 47 | 5.0 | 10.0 | 0.00 | 0.00 | 0.00 | 73 | |
| 20260507184001 | 63 | 56 | 7.0 | 10.0 | 0.00 | 0.00 | 0.00 | 73 | |
| 20260507183456 | 63 | 50 | 8.0 | 9.0 | 0.00 | 0.00 | 0.00 | 74 | |
| 20260507182954 | 62 | 44 | 2.0 | 6.0 | 0.00 | 0.00 | 0.00 | 75 | |
| 20260507182449 | 62 | 69 | 7.0 | 10.0 | 0.00 | 0.00 | 0.00 | 74 | |
| 20260507181945 | 62 | 42 | 7.0 | 11.0 | 0.00 | 0.00 | 0.00 | 75 | |
| 20260507181442 | 63 | 42 | 5.0 | 8.0 | 0.00 | 0.00 | 0.00 | 74 | |
| 20260507180939 | 62 | 38 | 5.0 | 11.0 | 0.00 | 0.00 | 0.00 | 74 | |
| 20260507180436 | 63 | 333 | 8.0 | 10.0 | 0.00 | 0.00 | 0.00 | 74 | |
| 20260507175932 | 62 | 35 | 5.0 | 8.0 | 0.00 | 0.00 | 0.00 | 75 | |
| 20260507175428 | 62 | 22 | 6.0 | 14.0 | 0.00 | 0.00 | 0.00 | 76 | |
| 20260507174926 | 62 | 43 | 5.0 | 7.0 | 0.00 | 0.00 | 0.00 | 77 | |
| 20260507174423 | 61 | 25 | 3.0 | 5.0 | 0.00 | 0.00 | 0.00 | 79 | |
| 20260507173921 | 61 | 65 | 3.0 | 9.0 | 0.00 | 0.00 | 0.00 | 78 | |
| 20260507173417 | 60 | 352 | 5.0 | 13.0 | 0.00 | 0.00 | 0.00 | 80 | |
| 20260507172914 | 60 | 73 | 5.0 | 16.0 | 0.00 | 0.00 | 0.00 | 81 | |
| 20260507172411 | 60 | 6 | 6.0 | 8.0 | 0.00 | 0.00 | 0.00 | 81 | |
| 20260507171907 | 60 | 20 | 7.0 | 13.0 | 0.00 | 0.00 | 0.00 | 82 | |
| 20260507171403 | 60 | 43 | 6.0 | 11.0 | 0.00 | 0.00 | 0.00 | 83 | |
| 20260507170901 | 59 | 67 | 2.0 | 6.0 | 0.00 | 0.00 | 0.00 | 85 | |
| 20260507170357 | 59 | 54 | 6.0 | 9.0 | 0.00 | 0.00 | 0.00 | 84 | |
| 20260507165853 | 59 | 58 | 7.0 | 8.0 | 0.00 | 0.00 | 0.00 | 85 | |
| 20260507165349 | 59 | 38 | 3.0 | 9.0 | 0.00 | 0.00 | 0.00 | 85 | |
| 20260507164845 | 59 | 75 | 5.0 | 9.0 | 0.00 | 0.00 | 0.00 | 86 | |
| 20260507164342 | 58 | 72 | 5.0 | 11.0 | 0.00 | 0.00 | 0.00 | 86 | |
| 20260507163840 | 58 | 33 | 4.0 | 11.0 | 0.00 | 0.00 | 0.00 | 87 | |
| 20260507163337 | 58 | 340 | 7.0 | 9.0 | 0.00 | 0.00 | 0.00 | 87 | |
| 20260507162833 | 58 | 14 | 6.0 | 9.0 | 0.00 | 0.00 | 0.00 | 87 | |
| 20260507162329 | 58 | 334 | 7.0 | 10.0 | 0.00 | 0.00 | 0.00 | 87 | |
| 20260507161826 | 58 | 19 | 7.0 | 14.0 | 0.00 | 0.00 | 0.00 | 87 | |
| 20260507161323 | 58 | 352 | 7.0 | 14.0 | 0.00 | 0.00 | 0.00 | 87 | |
| 20260507160819 | 58 | 358 | 6.0 | 14.0 | 0.00 | 0.00 | 0.00 | 87 | |
| 20260507160315 | 58 | 348 | 12.0 | 16.0 | 0.00 | 0.00 | 0.00 | 87 | |
| 20260507155811 | 57 | 322 | 13.0 | 16.0 | 0.00 | 0.00 | 0.00 | 87 | |
| 20260507155308 | 58 | 328 | 10.0 | 15.0 | 0.00 | 0.00 | 0.00 | 87 | |
| 20260507154804 | 58 | 346 | 15.0 | 20.0 | 0.00 | 0.00 | 0.00 | 87 | |
| 20260507154302 | 58 | 350 | 6.0 | 10.0 | 0.00 | 0.00 | 0.00 | 87 | |
| 20260507153758 | 58 | 11 | 5.0 | 14.0 | 0.00 | 0.00 | 0.00 | 87 | |
| 20260507153254 | 58 | 29 | 5.0 | 11.0 | 0.00 | 0.00 | 0.00 | 88 | |
| 20260507152751 | 58 | 28 | 5.0 | 7.0 | 0.00 | 0.00 | 0.00 | 88 | |
| 20260507152248 | 57 | 333 | 7.0 | 10.0 | 0.00 | 0.00 | 0.00 | 88 | |
| 20260507151743 | 57 | 349 | 7.0 | 11.0 | 0.00 | 0.00 | 0.00 | 88 | |
| 20260507151240 | 57 | 35 | 10.0 | 16.0 | 0.00 | 0.00 | 0.00 | 89 | |
| 20260507150737 | 57 | 355 | 8.0 | 11.0 | 0.00 | 0.00 | 0.00 | 89 | |
| 20260507150234 | 57 | 336 | 11.0 | 15.0 | 0.00 | 0.00 | 0.00 | 89 | |
| 20260507145730 | 57 | 358 | 8.0 | 17.0 | 0.00 | 0.00 | 0.00 | 89 | |
| 20260507145226 | 57 | 350 | 5.0 | 11.0 | 0.00 | 0.00 | 0.00 | 90 | |
| 20260507144724 | 57 | 0 | 7.0 | 13.0 | 0.00 | 0.00 | 0.00 | 90 | |
| 20260507144221 | 57 | 329 | 8.0 | 10.0 | 0.00 | 0.00 | 0.00 | 91 | |
| 20260507143718 | 57 | 9 | 9.0 | 11.0 | 0.00 | 0.00 | 0.00 | 91 | |
| 20260507143215 | 56 | 36 | 8.0 | 10.0 | 0.00 | 0.00 | 0.00 | 91 | |
| 20260507142710 | 56 | 356 | 6.0 | 8.0 | 0.00 | 0.00 | 0.00 | 91 | |
| 20260507142208 | 56 | 359 | 7.0 | 13.0 | 0.00 | 0.00 | 0.00 | 91 | |
| 20260507141703 | 56 | 331 | 4.0 | 9.0 | 0.00 | 0.00 | 0.00 | 91 | |
| 20260507141201 | 56 | 319 | 5.0 | 11.0 | 0.00 | 0.00 | 0.00 | 91 | |
| 20260507140657 | 56 | 354 | 10.0 | 15.0 | 0.00 | 0.00 | 0.00 | 91 | |
| 20260507140155 | 56 | 6 | 11.0 | 14.0 | 0.00 | 0.00 | 0.00 | 90 | |
| 20260507135651 | 56 | 351 | 8.0 | 11.0 | 0.00 | 0.00 | 0.00 | 91 | |
| 20260507135149 | 56 | 288 | 8.0 | 11.0 | 0.00 | 0.00 | 0.00 | 91 | |
| 20260507134645 | 56 | 19 | 6.0 | 11.0 | 0.00 | 0.00 | 0.00 | 91 | |
| 20260507134141 | 56 | 350 | 8.0 | 13.0 | 0.00 | 0.00 | 0.00 | 91 | |
| 20260507133637 | 56 | 321 | 7.0 | 10.0 | 0.00 | 0.00 | 0.00 | 91 | |
| 20260507133135 | 56 | 4 | 4.0 | 9.0 | 0.00 | 0.00 | 0.00 | 91 | |
| 20260507132632 | 56 | 354 | 4.0 | 7.0 | 0.00 | 0.00 | 0.00 | 91 | |
| 20260507132128 | 56 | 341 | 11.0 | 13.0 | 0.00 | 0.00 | 0.00 | 91 | |
| 20260507131625 | 57 | 348 | 9.0 | 15.0 | 0.00 | 0.00 | 0.00 | 90 | |
| 20260507131122 | 57 | 11 | 4.0 | 13.0 | 0.00 | 0.00 | 0.00 | 90 | |
| 20260507130619 | 57 | 352 | 9.0 | 14.0 | 0.00 | 0.00 | 0.00 | 89 | |
| 20260507130117 | 57 | 35 | 9.0 | 10.0 | 0.00 | 0.00 | 0.00 | 89 | |
| 20260507125616 | 57 | 358 | 9.0 | 11.0 | 0.00 | 0.00 | 0.00 | 89 | |
| 20260507125113 | 57 | 329 | 5.0 | 9.0 | 0.00 | 0.00 | 0.00 | 89 | |
| 20260507124609 | 57 | 4 | 9.0 | 11.0 | 0.00 | 0.00 | 0.00 | 88 | |
| 20260507124107 | 57 | 350 | 3.0 | 7.0 | 0.00 | 0.00 | 0.00 | 88 | |
| 20260507123605 | 57 | 323 | 9.0 | 13.0 | 0.00 | 0.00 | 0.00 | 88 | |
| 20260507123101 | 57 | 335 | 7.0 | 14.0 | 0.00 | 0.00 | 0.00 | 88 | |
| 20260507122556 | 57 | 9 | 10.0 | 15.0 | 0.00 | 0.00 | 0.00 | 88 | |
| 20260507122052 | 57 | 30 | 12.0 | 14.0 | 0.00 | 0.00 | 0.00 | 88 | |
| 20260507121548 | 57 | 4 | 8.0 | 16.0 | 0.00 | 0.00 | 0.00 | 88 | |
| 20260507121045 | 57 | 359 | 15.0 | 17.0 | 0.00 | 0.00 | 0.00 | 89 | |
| 20260507120541 | 57 | 354 | 11.0 | 16.0 | 0.00 | 0.00 | 0.00 | 89 | |
| 20260507120038 | 57 | 339 | 9.0 | 17.0 | 0.00 | 0.00 | 0.00 | 89 | |
| 20260507115534 | 57 | 15 | 7.0 | 11.0 | 0.00 | 0.00 | 0.00 | 89 | |
| 20260507115030 | 57 | 3 | 7.0 | 10.0 | 0.00 | 0.00 | 0.00 | 89 | |
| 20260507114526 | 57 | 10 | 11.0 | 16.0 | 0.00 | 0.00 | 0.00 | 89 | |
| 20260507114023 | 57 | 13 | 7.0 | 14.0 | 0.00 | 0.00 | 0.00 | 89 | |
| 20260507113521 | 57 | 331 | 9.0 | 13.0 | 0.00 | 0.00 | 0.00 | 89 | |
| 20260507113018 | 57 | 354 | 8.0 | 14.0 | 0.00 | 0.00 | 0.00 | 89 | |
| 20260507112516 | 57 | 351 | 9.0 | 15.0 | 0.00 | 0.00 | 0.00 | 89 | |
| 20260507112012 | 57 | 341 | 10.0 | 14.0 | 0.00 | 0.00 | 0.00 | 89 | |
| 20260507111510 | 58 | 342 | 8.0 | 10.0 | 0.00 | 0.00 | 0.00 | 89 | |
| 20260507111005 | 58 | 335 | 7.0 | 13.0 | 0.00 | 0.00 | 0.00 | 89 | |
| 20260507110502 | 58 | 332 | 7.0 | 13.0 | 0.00 | 0.00 | 0.00 | 89 | |
| 20260507105958 | 58 | 67 | 6.0 | 11.0 | 0.00 | 0.00 | 0.00 | 89 | |
| 20260507105455 | 58 | 4 | 10.0 | 18.0 | 0.00 | 0.00 | 0.00 | 89 | |
| 20260507104951 | 58 | 30 | 5.0 | 11.0 | 0.00 | 0.00 | 0.00 | 89 | |
| 20260507104449 | 58 | 17 | 9.0 | 11.0 | 0.00 | 0.00 | 0.00 | 89 | |
| 20260507103944 | 58 | 28 | 14.0 | 21.0 | 0.00 | 0.00 | 0.00 | 88 | |
| 20260507103441 | 58 | 6 | 9.0 | 16.0 | 0.00 | 0.00 | 0.00 | 88 | |
| 20260507102937 | 58 | 334 | 8.0 | 13.0 | 0.00 | 0.00 | 0.00 | 88 | |
| 20260507102434 | 58 | 350 | 9.0 | 10.0 | 0.00 | 0.00 | 0.00 | 88 | |
| 20260507101931 | 58 | 16 | 4.0 | 6.0 | 0.00 | 0.00 | 0.00 | 88 | |
| 20260507101426 | 58 | 316 | 5.0 | 8.0 | 0.00 | 0.00 | 0.00 | 88 | |
| 20260507100923 | 58 | 4 | 8.0 | 10.0 | 0.00 | 0.00 | 0.00 | 87 | |
| 20260507100420 | 58 | 7 | 5.0 | 11.0 | 0.00 | 0.00 | 0.00 | 87 | |
| 20260507095919 | 58 | 345 | 10.0 | 10.0 | 0.00 | 0.00 | 0.00 | 87 | |
| 20260507095415 | 58 | 339 | 7.0 | 11.0 | 0.00 | 0.00 | 0.00 | 87 | |
| 20260507094913 | 59 | 346 | 3.0 | 9.0 | 0.00 | 0.00 | 0.00 | 86 | |
| 20260507094408 | 59 | 339 | 7.0 | 13.0 | 0.00 | 0.00 | 0.00 | 86 | |
| 20260507093906 | 59 | 22 | 6.0 | 13.0 | 0.00 | 0.00 | 0.00 | 86 | |
| 20260507093404 | 59 | 346 | 5.0 | 6.0 | 0.00 | 0.00 | 0.00 | 86 | |
| 20260507092902 | 59 | 345 | 5.0 | 7.0 | 0.00 | 0.00 | 0.00 | 86 | |
| 20260507092357 | 59 | 9 | 7.0 | 13.0 | 0.00 | 0.00 | 0.00 | 86 | |
| 20260507091854 | 59 | 1 | 6.0 | 8.0 | 0.00 | 0.00 | 0.00 | 86 | |
| 20260507091351 | 59 | 351 | 6.0 | 8.0 | 0.00 | 0.00 | 0.00 | 86 | |
| 20260507090846 | 59 | 341 | 1.0 | 3.0 | 0.00 | 0.00 | 0.00 | 86 | |
| 20260507090343 | 59 | 342 | 5.0 | 6.0 | 0.00 | 0.00 | 0.00 | 86 | |
| 20260507085840 | 59 | 341 | 4.0 | 6.0 | 0.00 | 0.00 | 0.00 | 86 | |
| 20260507085337 | 59 | 359 | 2.0 | 5.0 | 0.00 | 0.00 | 0.00 | 86 | |
| 20260507084834 | 59 | 7 | 4.0 | 6.0 | 0.00 | 0.00 | 0.00 | 86 | |
| 20260507084330 | 59 | 16 | 3.0 | 6.0 | 0.00 | 0.00 | 0.00 | 86 | |
| 20260507083828 | 59 | 28 | 4.0 | 9.0 | 0.00 | 0.00 | 0.00 | 86 | |
| 20260507083324 | 59 | 343 | 3.0 | 3.0 | 0.00 | 0.00 | 0.00 | 86 | |
| 20260507082820 | 59 | 0 | 2.0 | 3.0 | 0.00 | 0.00 | 0.00 | 86 | |
| 20260507082316 | 59 | 14 | 2.0 | 2.0 | 0.00 | 0.00 | 0.00 | 86 | |
| 20260507081814 | 59 | 21 | 2.0 | 3.0 | 0.00 | 0.00 | 0.00 | 86 | |
| 20260507081309 | 59 | 345 | 4.0 | 5.0 | 0.00 | 0.00 | 0.00 | 85 | |
| 20260507080806 | 59 | 336 | 3.0 | 3.0 | 0.00 | 0.00 | 0.00 | 86 | |
| 20260507080303 | 59 | 346 | 4.0 | 7.0 | 0.00 | 0.00 | 0.00 | 86 | |
| 20260507075757 | 59 | 1 | 3.0 | 3.0 | 0.00 | 0.00 | 0.00 | 86 | |
| 20260507075254 | 59 | 26 | 2.0 | 7.0 | 0.00 | 0.00 | 0.00 | 86 | |
| 20260507074750 | 59 | 18 | 1.0 | 5.0 | 0.00 | 0.00 | 0.00 | 86 | |
| 20260507074249 | 59 | 18 | 2.0 | 2.0 | 0.00 | 0.00 | 0.00 | 86 | |
| 20260507073745 | 59 | 344 | 1.0 | 5.0 | 0.00 | 0.00 | 0.00 | 86 | |
| 20260507073242 | 59 | 30 | 3.0 | 5.0 | 0.00 | 0.00 | 0.00 | 86 | |
| 20260507072740 | 59 | 22 | 3.0 | 5.0 | 0.00 | 0.00 | 0.00 | 86 | |
| 20260507072237 | 59 | 36 | 5.0 | 6.0 | 0.00 | 0.00 | 0.00 | 86 | |
| 20260507071734 | 59 | 41 | 2.0 | 3.0 | 0.00 | 0.00 | 0.00 | 85 | |
| 20260507071230 | 59 | 52 | 0.0 | 2.0 | 0.00 | 0.00 | 0.00 | 85 | |
| 20260507070727 | 59 | 62 | 3.0 | 5.0 | 0.00 | 0.00 | 0.00 | 85 | |
| 20260507070224 | 60 | 37 | 2.0 | 5.0 | 0.00 | 0.00 | 0.00 | 85 | |
| 20260507065721 | 60 | 24 | 3.0 | 6.0 | 0.00 | 0.00 | 0.00 | 85 |